Regional Weather Roundup
Issued by NWS Green Bay, WI

Home | Current Version | Previous Version | Graphics & Text | Print | Product List | Glossary Off
Versions: 1 2 3 4 5 6 7 8 9 10 11 12 13 14 15 16 17 18 19 20 21 22 23 24 25 26 27 28 29 30 31 32 33 34 35 36 37 38 39 40 41 42 43 44 45 46 47 48 49 50

000
ASUS43 KGRB 221800
RWRGRB

NORTH-CENTRAL AND NORTHEAST WISCONSIN REGIONAL WEATHER ROUNDUP
NATIONAL WEATHER SERVICE GREEN BAY WI
100 PM CDT WED MAR 22 2017

WIZ005-009-010>012-018-019-221900-
NORTH CENTRAL WISCONSIN

CITY           SKY/WX    TMP DP  RH WIND       PRES   REMARKS
IRONWOOD       SUNNY     30   7  37 SW6       30.53F
MANITOWISH WTR NOT AVBL
ARBOR VITAE    NOT AVBL
EAGLE RIVER    NOT AVBL
LAND O LAKES   NOT AVBL
RHINELANDER    SUNNY     29   4  34 CALM      30.52F
PHILLIPS       SUNNY     29   7  38 E7        30.52F
ANTIGO         NOT AVBL
TOMAHAWK       NOT AVBL
MERRILL        NOT AVBL
$$

WIZ013-073-221900-
NORTHEAST WISCONSIN

CITY           SKY/WX    TMP DP  RH WIND       PRES   REMARKS
IRON MOUNTAIN  SUNNY     29   5  36 VRB5      30.55F
MARINETTE      FLURRIES  27  13  55 S6        30.64
$$

WIZ017-030-035>037-045-221900-
CENTRAL WISCONSIN

CITY           SKY/WX    TMP DP  RH WIND       PRES   REMARKS
MEDFORD        NOT AVBL
WAUSAU         SUNNY     29   7  39 S8        30.55F
MOSINEE        SUNNY     30   7  37 VRB6      30.56F
MARSHFIELD     SUNNY     30   9  41 SE10      30.53F
WISC RAPIDS    SUNNY     32   5  32 SE7       30.58F
STEVENS POINT  NOT AVBL
WAUPACA        NOT AVBL
SHAWANO        SUNNY     31  11  43 N6        30.61F
CLINTONVILLE   SUNNY     32   9  37 SE3       30.60F
WAUTOMA        SUNNY     32  11  41 E8        30.59F
$$

WIZ038-039-048-051-221900-
FOX VALLEY

CITY           SKY/WX    TMP DP  RH WIND       PRES   REMARKS
NWS GREEN BAY  SUNNY     31  15  52 CALM      30.61F
APPLETON       MOSUNNY   30   7  37 VRB3      30.58F
OSHKOSH        SUNNY     29  14  53 E7        30.59F
FOND DU LAC    SUNNY     31  13  47 VRB6      30.59F
$$

WIZ022-050-052-221900-
EAST CENTRAL WISCONSIN

CITY           SKY/WX    TMP DP  RH WIND       PRES   REMARKS
EPHRAIM        NOT AVBL
WASHINGTON ISL NOT AVBL
STURGEON BAY   SUNNY     27  13  55 NW3       30.62F
MANITOWOC      NOT AVBL
SHEBOYGAN      CLOUDY    28  17  63 E7        30.61F
$$

LMZ563-521-522-541>543-221900-
LAKESHORE

STATION/POSITION TIME  TEMP    WIND        PRES    VSBY  WAVE
                       AIR SEA DIR/SP/G                  HT/PER
                 (UTC) (F)     (DEG/KT/KT) (MB)    (MI)  (FT/S)
SHEBOYGAN LKSHOR 1700   26      40/  7/  9 1037.8S
KEWAUNEE LKSHORE 1730   26      60/  3/  8 1036.5F
NORTHPORT PIER   1740   24     120/  1/  2 1037.3R
SISTER BAY LKSHO 1650   27      10/ 15/ 17   N/A
CHAMBERS ISLAND  1740   27     350/  5/  6 1036.6F
MENOMINEE LKSHOR 1730   25      50/  3/  4 1036.3F
$$



USA.gov is the U.S. government's official web portal to all federal, state and local government web resources and services.